Regional Weather Roundup
Issued by NWS Newport/Morehead, NC

Current Version | Previous Version | Graphics & Text | Print | Product List | Glossary Off
Versions: 1 2 3 4 5 6 7 8 9 10 11 12 13 14 15 16 17 18 19 20 21 22 23 24 25 26 27 28 29 30 31 32 33 34 35 36 37 38 39 40 41 42 43 44 45 46 47 48 49 50

000
ASUS42 KMHX 270724
RWRMHX
WEATHER ROUNDUP FOR EASTERN NORTH CAROLINA
NATIONAL WEATHER SERVICE NEWPORT/MOREHEAD CITY NC
300 AM EDT FRI MAR 27 2015

NOTE: "FAIR" INDICATES FEW OR NO CLOUDS BELOW 12,000 FEET
WITH NO SIGNIFICANT WEATHER AND/OR OBSTRUCTIONS TO VISIBILITY

NCZ015>017-031-032-045>047-102-103-270800-
NORTH COAST

CITY           SKY/WX    TMP DP  RH WIND       PRES   REMARKS
EDENTON        CLOUDY    62  56  83 SW12      29.71F
ELIZABETH CITY CLOUDY    62  56  80 SW13      29.71F
KITTY HAWK     CLOUDY    65  58  79 SW8G16    29.71F
MANTEO         CLOUDY    62  58  86 SW13      29.72F

$$

NCZ045>047-081-094-103-104-270800-
CENTRAL COAST

CITY           SKY/WX    TMP DP  RH WIND       PRES   REMARKS
FRISCO         CLOUDY    64  59  83 W12       29.74F
SWANQUARTER      N/A     63 N/A N/A S3        29.68F

$$

NCZ095-097-098-100-101-270800-
SOUTHERN COAST

CITY           SKY/WX    TMP DP  RH WIND       PRES   REMARKS
BEAUFORT       CLOUDY    62  60  93 SW6       29.74F
CEDAR ISLAND     N/A     66 N/A N/A S7G15     29.77F
JACKSONVILLE   CLOUDY    65  61  87 SW8       29.73F
PINEY ISLAND   CLOUDY   N/A N/A N/A S8        29.74F
WILMINGTON     LGT RAIN  65  61  87 SW9       29.74F


$$

NCZ011>013-027>030-043-044-078>080-089-090>093-098-270800-
COASTAL PLAIN

CITY           SKY/WX    TMP DP  RH WIND       PRES   REMARKS
AHOSKIE        CLOUDY    64  56  77 S5        29.69F
CLINTON        DRIZZLE   64  58  81 S5        29.72F
ELIZABETHTOWN  CLOUDY    64  56  76 S6        29.72F
GOLDSBORO      CLOUDY    65  64  98 CALM      29.68F
GREENVILLE     CLOUDY    63  55  77 S8        29.74F
HAVELOCK       CLOUDY    67  58  72 SW9       29.75F
KENANSVILLE    LGT RAIN  61  56  82 CALM      29.72F
KINSTON        CLOUDY    64  56  78 S8        29.72F
NEW BERN       CLOUDY    66  61  84 SW5       29.74F
RICHLANDS      CLOUDY    63  57  82 S12       29.73F
ROCKY MOUNT    CLOUDY    64  58  80 S8        29.70F
WASHINGTON     CLOUDY    63  57  82 S7        29.72F
WHITEVILLE     CLOUDY    64  57  77 S9        29.72F

$$

AMZ130-135-150-152-154-156-158-170-250-252-270-ANZ085-086-088-633-658-670-270800-
MARINE OBSERVATIONS

STATION/POSITION TIME  TEMP    WIND        PRES    WAVE   SWELL
                       AIR SEA DIR/SP/G            HT/PER HT/PER
                 (UTC) (F)     (DEG/KT/KT) (MB)    (FT/S) (FT/S)
CHESAPEAKE LIGHT 0700   59     220/ 25/ 25 1004.8
64 E VA BEACH    0650   56 51  210/ 14/ 16 1005.5    8/ 9   7/ 9
DUCK             0700   64     210/ 12/ 15 1005.0
2 E DUCK         0611      42                N/A     4/ 8   2/11
10 NE DUCK       NOT AVBL
OREGON INLET     0700   60     210/ 12/ 14 1006.4
HATTERAS CG      0700   65                   N/A
CAPE LOOKOUT     0700   65     220/  8/ 11 1006.8
BEAUFORT LAB     0700   62                   N/A
27 SE WRIGHTSVLE 0600   64 64  210/ 12/ 14 1009.7
5 SE WRIGHTSVLE  0700   60 57  230/  6/ 10 1006.9
225 S CAPE HAT   0650   69 69  190/ 19/ 25 1011.7    8/ 7   2/14
41 SE CHARLESTON 0650   70 71  250/ 14/ 17 1006.2    5/ 8   3/ 8

$$



USA.gov is the U.S. government's official web portal to all federal, state and local government web resources and services.